Location: Gull Harbor
(47.1000°N, 122.9000°W)
Time: 19:32:53
(UTC-08:00)

Tiangong - Visible Passes

Search period start: 18 February 2026 00:00
Search period end: 28 February 2026 00:00
Orbit: 385 x 391 km, 41.5° (Epoch: 18 February)

Date Brightness Start Highest point End Pass type
(mag) Time Alt. Az. Time Alt. Az. Time Alt. Az.
18 Feb -0.3 18:30:33 10° WSW 18:33:16 26° S 18:35:58 10° SE visible
18 Feb 1.0 20:08:22 10° SW 20:08:36 11° SW 20:08:36 11° SW visible
19 Feb 0.4 19:09:07 10° WSW 19:11:11 16° SSW 19:13:02 11° SSE visible
20 Feb 0.1 18:10:17 10° WSW 18:12:46 21° SSW 18:15:14 10° SE visible
21 Feb 0.8 18:49:34 10° SW 18:50:30 11° SSW 18:51:27 10° S visible
